[分享] 今日Jacob deGrom

看板 baseball
作者 b99202071
時間 2020年09月27日
留言 125則留言,43人參與討論
推噓 56  ( 58推 2噓 65→ )

IP H R ER SO BB HR ERA 5.0 5 3 3 10 2 2 2.38 113-78 雙重賽對上華盛頓國民隊Scherzer 球種: 四縫線41% 滑球36% 變速20% 曲球3% 首局飆出生涯最快的102.2mph! 整場17顆100(99.5以上)mph 均速99.2mph也是今年單場最快 但46顆速球只有5球揮空 壞球率偏高 第三局94mph滑球被炸裂 第四局被打2安後暴投掉分 第五局速球打到深遠左外野 野手撞在牆上倒地不起 形成場內全壘打 五局投完113球過量下場 無關勝敗 不過送出10K(滑球5 速球3 變速2) 今年104K為國聯三振王 今年成績 4W2L ERA2.38 12GS 68局 K/9值13.56 BB/9值2.38 WHIP0.96 期待明年deGrom的球速 快還能更快~! --
※ 發信站: 批踢踢實業坊(ptt.cc), 來自: 61.224.73.19 (臺灣) ※ 文章網址: https://www.ptt.cc/bbs/Baseball/M.1601156702.A.8E4.html
1Fonomedu: CY應該是Darvish 與Bauer競爭 09/27 05:47
2Fklarc: K/9達13.56 誇張 等於平均1局K了1.5個 09/27 05:57
3Fsustainer123: 感覺沒了 09/27 05:58
4Fsaidon: 達比看似也沒得和包耳競爭 達比除了勝敗投比較好看以外其 09/27 06:05
1.Bauer 2.Darvish 3可能變Lamet ※ 編輯: b99202071 (61.224.73.19 臺灣), 09/27/2020 06:06:41
5Fsaidon: 他數據幾乎都輸包耳 09/27 06:05
6Fzouelephant: 除了勝敗投比較好看… 如果是2000年代應該保證達爾 09/27 06:08
7Fzouelephant: 拿了,觀念也是在演進,這還蠻值得開心的 09/27 06:08
8FSpursTony09: 我鮑穩了 09/27 06:08
9FCornyDragon: 包哥穩了 09/27 06:09
10Fzouelephant: 順帶一提 包爾拿CYA的話會是紅人隊史首個賽揚投手 09/27 06:10
11Fzouelephant: 紅人 洛磯 遊騎兵 馬林魚還沒出過賽揚 紅人最老 09/27 06:12
12Fyoungluke: 力拼薛蛇 贏不了 大都會掰掰 09/27 06:14
13Fjayzhu: 到底為啥球速可以這麼快 09/27 06:23
14Fkenkenken31: K掉Soto的變化球95Mph,搭配102速球,噁爆了 09/27 06:48
15Fusausausa: 三連霸無望了 09/27 07:05
16Fst6012: 問題是進階數據達比修 FIP比較好啊 09/27 07:34
17Fst6012: 講得好像包耳可能贏是觀念在演進 09/27 07:35
18Ftim8333: 我覺得國聯賽揚是Bauer的 進階數據很漂亮 09/27 07:37
19Fsleeeve: 達比修有要拿CY的機會愈來愈低了 09/27 07:39
20Fmtyk10100: 好扯的球速 09/27 07:55
21Fchucky: 這球速已經噴天了 09/27 07:57
22Fchris1102: 球速超快 09/27 07:58
23Fsffstpl: FIP最好不是deGrom? 也輪不到達爾吧 還是又變了? 09/27 08:04
24Fpolanco: 達比修就不是只贏Bauer勝投而已 FIP跟xFIP也贏 09/27 08:10
25Ft2134563: 美聯有porcello的前車之鑑啊 勝場多還是加分 09/27 08:10
26FLiaocavalier: 5勝4敗 拿賽揚太少了,不可能不看勝場的 09/27 08:10
27Fst6012: 問題是談到進階數據 達比修和包爾各有千秋 09/27 08:11
28Fsffstpl: 所以達爾和包爾比最有優勢的地方還是勝投吧 09/27 08:19
29Fyoungluke: deGrom這兩年把W的優勢打碎了 不過其他傳統數據還在 09/27 08:21
30Fst6012: 包爾有優勢的地方是傳統的三振和ERA 09/27 08:22
31Fst6012: 他贏的不是進階數據 09/27 08:23
32Fsffstpl: 那各有千秋的第方在哪 還是說進階都達爾贏 09/27 08:24
33Fst6012: FIP xFIP fwar都是達比修贏啊 bwar包爾小贏0.1 09/27 08:25
34Fb99202071: 各有勝負 最後大概會看三振跟ERA 09/27 08:26
35Fsffstpl: 那進階應該是打比修比較好吧 09/27 08:30
36Fyoungluke: FIP和fwar差不多的東西 去年Cole贏了一截也沒屁用 09/27 08:30
37Fst6012: 記者不一定會去看進階數據 09/27 08:32
38Fsffstpl: 那國聯投手現在進階數據最好的是誰 也是達比修領先嗎 09/27 08:33
39Fb99202071: deGrom 這場之後FIP2.25 達比修2.22 09/27 08:33
40Fb99202071: 被那場內全壘打害的.... 09/27 08:34
41Fsuper3b: 才4w2L是要拿什麼CY 09/27 08:34
42Fpolanco: 昨天查的時候地瓜FIP還是全聯盟最低耶XD 突然腫起來 09/27 08:35
43Fsffstpl: 那Burnes呢 好像聽過有人討論 09/27 08:36
44Fb99202071: 帳面上被爆打2HR 然後2BB ...xFIP還是贏 09/27 08:36
45Fsffstpl: 這球季真的太短了 09/27 08:36
46Fb99202071: Burnes上一場傷退 局數更難看了 09/27 08:36
47Fb99202071: ERA也輸達比修 09/27 08:37
48Fedhuang: 恭喜三振王 雖然CY掰掰 09/27 08:38
49Fsaidon: super3b: 才4w2L是要拿什麼CY 09/27 08:39
50Fsffstpl: 所以國聯FIP最好是達比修嘍? 09/27 08:39
51Fsaidon: 2010:king 13w12L是要拿蛇摸cy 09/27 08:39
52Fsaidon: 2018:degrom 10w9L是要拿蛇摸cy 嘻嘻 09/27 08:39
53Fst6012: 觀念是演進了一點啦 多看了點傳統數據 09/27 08:39
54Fb99202071: Burnes FIP2.02 09/27 08:39
55Fpolanco: 國聯FIP最好是Burnes 2.02 也是全聯盟最低 09/27 08:40
56Fst6012: Burnes FIP贏達比修 xFIP輸達比修這樣 09/27 08:40
57Fb99202071: 因為他HR9超低 09/27 08:41
58Ffeont: 你這個地瓜 09/27 08:42
59Fst6012: 就算包爾贏了也只證明記者多看三振和ERA而已 09/27 08:43
60Fyoungluke: fWAR和FIP真那麼神 去年和前年就不會是那種結果 09/27 08:46
61Fsaidon: 照你邏輯達比修贏了也只證明記者只看fip和xfip而已 09/27 08:47
62Fsaidon: 畢竟包爾跟達比比起來 就是多挨了幾轟 保送多了點 09/27 08:48
63Fst6012: 我只是想打說包爾進階數據也很好看的臉 09/27 08:50
64Fb99202071: SIERA xERA Bauer贏達比修 09/27 08:50
65Fst6012: 雖然可惜 估計還是吃個CY2 09/27 08:52
66Fsffstpl: 所以進階還是各有千秋吧 而且不只包爾和達爾接近而已? 09/27 08:53
67Fsaidon: 是很可惜拉 達比今年大概算生涯年了 09/27 08:54
68Fb99202071: 記者投票還是看結果為主啦 進階數據比較像是預測的工具 09/27 08:54
69Fsffstpl: 前面一群差異沒那麼大 這個賽季太短了 09/27 08:54
70Fb99202071: 只是今年球季畸形 就會讓人好奇162場的話誰贏 09/27 08:55
71Fsaidon: xfip比較像預測用 畢竟那個x指的都是expected了 09/27 08:56
72Fsffstpl: 賽揚一直以來都不是非常客觀的樣子 09/27 08:56
73Fsaidon: 162場又是另一回事了 畢竟有些人就是只猛那一兩個月 09/27 08:56
74Fst6012: 記者投票當然是主觀 09/27 08:57
75Fsaidon: 誒 如果真的要講客觀的話 以後都不用投票了 直接套公式 09/27 08:58
76Fsaidon: 分數最高的得獎這樣 09/27 08:58
77Fsffstpl: 其實現在的進階數據也不是完美的吧 真要照公式 公式也要 09/27 09:01
78Fsffstpl: 與時俱進比較好 09/27 09:01
79Fsffstpl: 我倒是覺得投票不一定要改 就了解這個獎項的性質就好 09/27 09:02
80Fmax2604: 「勝投的比重已經降低」和「勝投完全不被參考」根本是兩 09/27 09:02
81Fmax2604: 回事 09/27 09:02
82Fmax2604: 然後就是有人看到國王和地瓜就說勝投沒意義 09/27 09:03
83Fmax2604: 當其他數據優秀到領先其他人一大截,這時候勝投確實是參 09/27 09:05
84Fmax2604: 考用 09/27 09:05
85Fbensonla: 希望達比修拿 09/27 09:06
86Fyoungluke: Bauer其他攤開真的沒啥好嫌 deGrom帳面上ERA差太遠了 09/27 09:11
87Fscjh123: 應該包爾拿了 不過今年誰拿也沒差 根本不會被參考的球季 09/27 09:12
88FAyanami5566: 達比修加油 亞洲人首座賽揚靠你了 09/27 09:42
89Fsleeeve: 迪格今天算被打爆了 @@ 短期賽慘 09/27 09:53
90Fsleeeve: 目前國外CY網站似乎都預測達比修 大家最常用的TT Cy 09/27 09:54
91Fsleeeve: Yu : Bauer = 33.4 : 30.3 09/27 09:54
92Fsleeeve: 我覺得達比修拿大概西方球員又會不爽一片了 跟大谷一樣 09/27 09:55
93Fsleeeve: 不過TT Cy 那數據好像還沒更新 09/27 09:57
94Fb99202071: 38.3:37.5吧 09/27 09:57
95Fsaidon: sleeeve: 我覺得達比修拿大概西方球員又會不爽 09/27 09:59
96Fsaidon: 一朗當年拿mvp,roy 野茂當年拿roy時 西方人有不爽麻 09/27 10:00
97Fst6012: 大概會像2013年那樣的結果吧 09/27 10:02
98Fst6012: 預測上很接近 結果CY1很多都投給包爾 09/27 10:05
99Fedhuang: 反正不會像去年這麼難選XD 09/27 10:13
100Fmike200801: 應該是bauer拿到 09/27 10:15
101Fratom0315: 我覺得可能還是給Bauer 09/27 10:31
102Fmott: 達比拿 09/27 10:36
103Ffeont: CY是投票的 他們也不會去看數據給獎 但希望達可以拿 09/27 10:38
104Fsweetantt: 達爾或寶兒拿都不意外 09/27 10:43
105Fyoungluke: 不看數據看啥 09/27 10:43
106Fst6012: 看心情和信仰 09/27 10:44
107Fwuri: 數據派戰起來 09/27 10:49
108Fsleeeve: 達比在衡量投手實力的數據,三振,era都輸不少 09/27 10:55
109Fsleeeve: 尤其era甚至不在同一個檔次,跟去年比完全不同 09/27 10:55
110Fsleeeve: 今年會比較好選,達比修還是早點睡吧 09/27 10:56
111Fmott: Bauer少投一場 明天敢出來投 拚輸贏 才是條漢子 09/27 10:56
112Fyoungluke: 人家要季後賽拚輸贏了 09/27 10:59
113Fn61208: 我是覺得因為只打半季,他的均速才如此飆 09/27 10:59
114Fn61208: 明年如果正常162賽季有可能是會下修回去的 09/27 11:00
115Fcalwolf: 可是包爾媒體緣好嗎? 09/27 11:05
116Fsaidon: 人家都說bb爺媒體緣不好 還不是mvp*7 09/27 11:06
117Fpolanco: 除非是泰德威廉斯跟狄馬喬那種差距 不然媒體緣影響很小吧 09/27 11:13
118Fwillywasd: 兩個都可以 但希望科學家拿 09/27 11:16
119Fpaul5566: 可惜了,賽揚沒惹 09/27 12:39
120FNiNiboy: 可悲 09/27 13:17
121Fbrian980466: 94 mile 的滑球也能炸裂 大聯盟真的好可怕 09/27 14:22
122FJoyeeee: 達達好可惜 09/27 15:35
123Fdaniel0202: 先發102好鬼 09/27 15:47
124Fgswsb: 地瓜三連CYA估計是掰了,這樣看來Maddux和RJ能連拿四年CY 09/28 15:34
125Fgswsb: A真的好猛 09/28 15:34

baseball熱門文章

35 [閒聊] 日本選手比較愛哭?
56 2020-10-29 23:28
24 [討論] 羅德再見暴投的影片
34 2020-10-29 22:47
25 [分享] 今日大野雄大
35 2020-10-29 22:47
75 [分享] 今日吳東融
109 2020-10-29 22:31
58 [分享] 今日王柏融
100 2020-10-29 20:40
26 [問題] 杜家明現在在想什麼
41 2020-10-29 19:58
48 [分享] 羅德再見失誤輸球
89 2020-10-29 19:43
34 [炸裂] 許基宏 三分砲
51 2020-10-29 19:07